• In Uzbekistan
  • List of Countries
  • For 7 days
  • Water Temperature
  • Weather Map
  • Weather Widgets
  • user-avatar
    Login

    Hourly Weather Nicosia

    Today, 19 August, Monday

    Time Temperature Precipitation Wind Pressure Humidity
    00:00 +27°C° 0 mm 2 mps 741 mmHg 49%
    01:00 +27°C° 0 mm 3 mps 741 mmHg 49%
    02:00 +27°C° 0 mm 3 mps 741 mmHg 49%
    03:00 +26°C° 0 mm 3 mps 741 mmHg 50%
    04:00 +26°C° 0 mm 4 mps 741 mmHg 50%
    05:00 +26°C° 0 mm 4 mps 741 mmHg 51%
    06:00 +27°C° 0 mm 4 mps 741 mmHg 48%
    07:00 +29°C° 0 mm 4 mps 742 mmHg 45%
    08:00 +30°C° 0 mm 4 mps 742 mmHg 42%
    09:00 +32°C° 0 mm 4 mps 742 mmHg 40%
    10:00 +34°C° 0 mm 5 mps 742 mmHg 38%
    11:00 +35°C° 0 mm 5 mps 742 mmHg 36%
    12:00 +34°C° 0 mm 5 mps 742 mmHg 41%
    13:00 +34°C° 0 mm 5 mps 742 mmHg 47%
    14:00 +34°C° 0 mm 4 mps 742 mmHg 52%
    15:00 +33°C° 0.2 mm 4 mps 742 mmHg 55%
    16:00 +32°C° 0.2 mm 4 mps 742 mmHg 59%
    17:00 +30°C° 0.2 mm 4 mps 742 mmHg 62%
    18:00 +29°C° 0.1 mm 3 mps 742 mmHg 66%
    19:00 +28°C° 0.1 mm 3 mps 742 mmHg 70%
    20:00 +28°C° 0.1 mm 2 mps 743 mmHg 74%
    21:00 +27°C° 0.1 mm 2 mps 743 mmHg 73%
    22:00 +27°C° 0.1 mm 2 mps 743 mmHg 72%
    23:00 +27°C° 0.1 mm 2 mps 743 mmHg 70%

    Tomorrow, 20 August, Tuesday

    Time Temperature Precipitation Wind Pressure Humidity
    00:00 +26°C° 0.1 mm 2 mps 742 mmHg 69%
    01:00 +26°C° 0.1 mm 2 mps 742 mmHg 67%
    02:00 +26°C° 0.1 mm 2 mps 742 mmHg 66%
    03:00 +25°C° 0.1 mm 2 mps 742 mmHg 65%
    04:00 +25°C° 0.1 mm 2 mps 742 mmHg 65%
    05:00 +25°C° 0.1 mm 2 mps 743 mmHg 64%
    06:00 +26°C° 0.1 mm 1 mps 743 mmHg 59%
    07:00 +28°C° 0.1 mm 1 mps 743 mmHg 54%
    08:00 +30°C° 0.1 mm 1 mps 744 mmHg 49%
    09:00 +30°C° 0 mm 2 mps 744 mmHg 48%
    10:00 +31°C° 0 mm 2 mps 744 mmHg 47%
    11:00 +32°C° 0 mm 2 mps 744 mmHg 47%
    12:00 +33°C° 0.1 mm 3 mps 744 mmHg 50%
    13:00 +33°C° 0.1 mm 4 mps 744 mmHg 53%
    14:00 +33°C° 0.1 mm 5 mps 744 mmHg 57%
    15:00 +32°C° 0 mm 5 mps 743 mmHg 58%
    16:00 +32°C° 0 mm 6 mps 743 mmHg 59%
    17:00 +32°C° 0 mm 6 mps 743 mmHg 60%
    18:00 +30°C° 0 mm 7 mps 743 mmHg 63%
    19:00 +29°C° 0 mm 7 mps 743 mmHg 67%
    20:00 +28°C° 0 mm 7 mps 744 mmHg 70%
    21:00 +28°C° 0 mm 8 mps 744 mmHg 63%
    22:00 +28°C° 0 mm 8 mps 744 mmHg 56%
    23:00 +29°C° 0 mm 8 mps 744 mmHg 49%

    Day after tomorrow, 21 August, Wednesday

    Time Temperature Precipitation Wind Pressure Humidity
    00:00 +28°C° 0 mm 8 mps 743 mmHg 49%
    01:00 +28°C° 0 mm 7 mps 743 mmHg 49%
    02:00 +27°C° 0 mm 6 mps 743 mmHg 49%
    03:00 +27°C° 0 mm 6 mps 743 mmHg 50%
    04:00 +27°C° 0 mm 5 mps 743 mmHg 51%
    05:00 +27°C° 0 mm 5 mps 743 mmHg 52%
    06:00 +29°C° 0 mm 4 mps 743 mmHg 48%
    07:00 +30°C° 0 mm 4 mps 743 mmHg 44%
    08:00 +33°C° 0 mm 4 mps 743 mmHg 40%
    09:00 +34°C° 0 mm 5 mps 743 mmHg 37%
    10:00 +35°C° 0 mm 6 mps 743 mmHg 35%
    11:00 +36°C° 0 mm 6 mps 743 mmHg 32%
    12:00 +36°C° 0 mm 7 mps 743 mmHg 35%
    13:00 +36°C° 0 mm 7 mps 743 mmHg 38%
    14:00 +37°C° 0 mm 8 mps 742 mmHg 40%
    15:00 +37°C° 0 mm 8 mps 742 mmHg 39%
    16:00 +37°C° 0 mm 8 mps 742 mmHg 39%
    17:00 +37°C° 0 mm 9 mps 742 mmHg 38%
    18:00 +35°C° 0 mm 9 mps 742 mmHg 37%
    19:00 +34°C° 0 mm 8 mps 743 mmHg 37%
    20:00 +33°C° 0 mm 8 mps 743 mmHg 36%
    21:00 +32°C° 0 mm 8 mps 743 mmHg 35%
    22:00 +32°C° 0 mm 8 mps 743 mmHg 35%
    23:00 +32°C° 0 mm 9 mps 743 mmHg 34%

    22 August, Thursday

    Time Temperature Precipitation Wind Pressure Humidity
    00:00 +31°C° 0 mm 8 mps 743 mmHg 35%
    01:00 +31°C° 0 mm 8 mps 743 mmHg 36%
    02:00 +29°C° 0 mm 7 mps 742 mmHg 38%
    03:00 +29°C° 0 mm 6 mps 742 mmHg 39%
    04:00 +28°C° 0 mm 4 mps 742 mmHg 41%
    05:00 +28°C° 0 mm 3 mps 742 mmHg 43%
    06:00 +30°C° 0 mm 3 mps 742 mmHg 40%
    07:00 +31°C° 0 mm 3 mps 743 mmHg 38%
    08:00 +34°C° 0 mm 3 mps 743 mmHg 35%
    09:00 +35°C° 0 mm 3 mps 743 mmHg 38%
    10:00 +36°C° 0 mm 3 mps 743 mmHg 40%
    11:00 +36°C° 0 mm 2 mps 743 mmHg 43%
    12:00 +36°C° 0 mm 3 mps 743 mmHg 42%
    13:00 +36°C° 0 mm 3 mps 742 mmHg 41%
    14:00 +36°C° 0 mm 4 mps 742 mmHg 41%
    15:00 +36°C° 0 mm 4 mps 742 mmHg 44%
    16:00 +35°C° 0 mm 5 mps 742 mmHg 47%
    17:00 +35°C° 0 mm 6 mps 741 mmHg 50%
    18:00 +34°C° 0 mm 6 mps 742 mmHg 53%
    19:00 +33°C° 0 mm 6 mps 742 mmHg 56%
    20:00 +32°C° 0 mm 6 mps 742 mmHg 59%
    21:00 +32°C° 0 mm 6 mps 742 mmHg 53%
    22:00 +32°C° 0 mm 6 mps 742 mmHg 47%
    23:00 +32°C° 0 mm 6 mps 742 mmHg 41%

    23 August, Friday

    Time Temperature Precipitation Wind Pressure Humidity
    00:00 +32°C° 0 mm 6 mps 742 mmHg 41%
    01:00 +32°C° 0 mm 6 mps 741 mmHg 41%
    02:00 +32°C° 0 mm 6 mps 741 mmHg 41%
    03:00 +30°C° 0 mm 5 mps 741 mmHg 43%
    04:00 +29°C° 0 mm 4 mps 741 mmHg 44%
    05:00 +29°C° 0 mm 3 mps 741 mmHg 46%
    06:00 +30°C° 0 mm 3 mps 741 mmHg 42%
    07:00 +32°C° 0 mm 2 mps 742 mmHg 39%
    08:00 +35°C° 0 mm 2 mps 742 mmHg 36%
    09:00 +36°C° 0 mm 2 mps 742 mmHg 35%
    10:00 +37°C° 0 mm 2 mps 742 mmHg 34%
    11:00 +38°C° 0 mm 2 mps 742 mmHg 34%
    12:00 +37°C° 0 mm 2 mps 742 mmHg 39%
    13:00 +37°C° 0 mm 2 mps 741 mmHg 44%
    14:00 +36°C° 0 mm 3 mps 741 mmHg 49%
    15:00 +36°C° 0 mm 3 mps 741 mmHg 48%
    16:00 +36°C° 0 mm 4 mps 741 mmHg 47%
    17:00 +35°C° 0 mm 4 mps 741 mmHg 46%
    18:00 +34°C° 0 mm 5 mps 741 mmHg 48%
    19:00 +34°C° 0 mm 5 mps 741 mmHg 50%
    20:00 +33°C° 0 mm 6 mps 741 mmHg 52%
    21:00 +33°C° 0 mm 6 mps 741 mmHg 45%
    22:00 +33°C° 0 mm 6 mps 741 mmHg 39%
    23:00 +33°C° 0 mm 7 mps 741 mmHg 32%

    24 August, Saturday

    Time Temperature Precipitation Wind Pressure Humidity
    00:00 +33°C° 0 mm 7 mps 741 mmHg 33%
    01:00 +33°C° 0 mm 6 mps 740 mmHg 34%
    02:00 +33°C° 0 mm 6 mps 740 mmHg 35%
    03:00 +32°C° 0 mm 5 mps 740 mmHg 36%
    04:00 +30°C° 0 mm 4 mps 740 mmHg 38%
    05:00 +30°C° 0 mm 3 mps 740 mmHg 40%
    06:00 +31°C° 0 mm 3 mps 741 mmHg 36%
    07:00 +34°C° 0 mm 3 mps 741 mmHg 33%
    08:00 +36°C° 0 mm 2 mps 741 mmHg 29%
    09:00 +38°C° 0 mm 2 mps 741 mmHg 29%
    10:00 +39°C° 0 mm 2 mps 741 mmHg 28%
    11:00 +40°C° 0 mm 1 mps 741 mmHg 27%
    12:00 +39°C° 0 mm 2 mps 741 mmHg 31%
    13:00 +39°C° 0 mm 2 mps 741 mmHg 34%
    14:00 +39°C° 0 mm 2 mps 740 mmHg 38%
    15:00 +38°C° 0 mm 3 mps 740 mmHg 38%
    16:00 +38°C° 0 mm 4 mps 740 mmHg 38%
    17:00 +37°C° 0 mm 5 mps 740 mmHg 38%
    18:00 +36°C° 0 mm 5 mps 740 mmHg 41%
    19:00 +34°C° 0 mm 6 mps 741 mmHg 43%
    20:00 +33°C° 0 mm 6 mps 741 mmHg 46%
    21:00 +33°C° 0 mm 7 mps 741 mmHg 41%
    22:00 +34°C° 0 mm 7 mps 741 mmHg 36%
    23:00 +34°C° 0 mm 7 mps 741 mmHg 31%
    Show more